THY564 LTAI-LYTV

Flight info

Callsign THY564
Flight time 1h 59m
Altitude 38000
Route ALPAY UW79 DAL UN136 RDS UL995 RIPLI UN137 SKP UL617 TSL UN130 TALAS N130 MAVAR Y400 RETRA L604 POD
Aircraft B737/M-SDE2E3FGHIRWXY/LB1

Departure

Time 2026-05-04 13:02
Airport Antalya International Airport (LTAI)

Arrival

Time 2026-05-04 15:01
Airport Tivat Airport (LYTV)
Time Latitude Longitude Altitude Speed Heading
2026-05-04 12:32 36.89704 30.80085 185 ft 0 kts 31°
2026-05-04 12:51 36.89703 30.80084 184 ft 1 kts 31°
2026-05-04 12:52 36.89690 30.80075 184 ft 2 kts 31°
2026-05-04 12:52 36.89677 30.80065 184 ft 2 kts 31°
2026-05-04 12:52 36.89664 30.80056 184 ft 2 kts 31°
2026-05-04 12:52 36.89652 30.80047 184 ft 2 kts 31°
2026-05-04 12:53 36.89639 30.80037 184 ft 2 kts 31°
2026-05-04 12:53 36.89625 30.80028 184 ft 1 kts 36°
2026-05-04 12:53 36.89620 30.80015 184 ft 0 kts 91°
2026-05-04 12:53 36.89621 30.80008 184 ft 1 kts 99°
2026-05-04 12:54 36.89621 30.80005 184 ft 0 kts 97°
2026-05-04 12:55 36.89621 30.80009 184 ft 3 kts 97°
2026-05-04 12:56 36.89615 30.80075 184 ft 8 kts 96°
2026-05-04 12:56 36.89607 30.80175 184 ft 14 kts 96°
2026-05-04 12:56 36.89594 30.80318 184 ft 18 kts 96°
2026-05-04 12:56 36.89578 30.80498 184 ft 23 kts 96°
2026-05-04 12:57 36.89538 30.80688 184 ft 20 kts 174°
2026-05-04 12:57 36.89378 30.80661 184 ft 27 kts 186°
2026-05-04 12:57 36.89166 30.80633 184 ft 33 kts 186°
2026-05-04 12:57 36.88930 30.80600 184 ft 31 kts 187°
2026-05-04 12:58 36.88711 30.80570 184 ft 30 kts 186°
2026-05-04 12:58 36.88567 30.80573 184 ft 15 kts 131°
2026-05-04 12:58 36.88600 30.80666 184 ft 12 kts 34°
2026-05-04 12:58 36.88625 30.80687 184 ft 0 kts 35°
2026-05-04 12:59 36.88663 30.80720 184 ft 14 kts 35°
2026-05-04 13:00 36.88787 30.80802 184 ft 21 kts 18°
2026-05-04 13:00 36.88923 30.80837 184 ft 9 kts
2026-05-04 13:00 36.88928 30.80838 184 ft 0 kts
2026-05-04 13:01 36.88953 30.80841 184 ft 18 kts
2026-05-04 13:01 36.89346 30.80895 184 ft 91 kts
2026-05-04 13:01 36.90185 30.81016 192 ft 149 kts
2026-05-04 13:01 36.91227 30.81203 775 ft 151 kts
2026-05-04 13:02 36.92224 30.81442 1560 ft 147 kts 12°
2026-05-04 13:02 36.93132 30.82054 2157 ft 155 kts 25°
2026-05-04 13:02 36.94146 30.82620 2642 ft 166 kts 14°
2026-05-04 13:02 36.95270 30.83132 3124 ft 182 kts 17°
2026-05-04 13:03 36.96502 30.83741 3632 ft 197 kts 19°
2026-05-04 13:03 36.97707 30.84665 4204 ft 214 kts 41°
2026-05-04 13:03 36.98465 30.86263 4914 ft 226 kts 67°
2026-05-04 13:03 36.98669 30.88312 5455 ft 249 kts 90°
2026-05-04 13:04 36.98472 30.90507 6047 ft 263 kts 93°
2026-05-04 13:04 36.98259 30.92816 6694 ft 273 kts 92°
2026-05-04 13:04 36.98059 30.95185 7466 ft 278 kts 92°
2026-05-04 13:04 36.97858 30.97622 7850 ft 285 kts 93°
2026-05-04 13:05 36.97652 31.00085 7955 ft 284 kts 93°
2026-05-04 13:05 36.97304 31.02487 7961 ft 285 kts 104°
2026-05-04 13:05 36.96417 31.04705 7969 ft 288 kts 124°
2026-05-04 13:05 36.95024 31.06480 7964 ft 290 kts 140°
2026-05-04 13:06 36.93209 31.07758 8330 ft 305 kts 160°
2026-05-04 13:06 36.91174 31.08247 9391 ft 298 kts 177°
2026-05-04 13:06 36.89113 31.08140 10195 ft 300 kts 186°
2026-05-04 13:06 36.86995 31.07832 10641 ft 316 kts 188°
2026-05-04 13:07 36.84759 31.07491 11082 ft 332 kts 188°
2026-05-04 13:07 36.82405 31.07148 11514 ft 348 kts 188°
2026-05-04 13:07 36.79952 31.06801 11917 ft 364 kts 188°
2026-05-04 13:07 36.77362 31.06435 12441 ft 377 kts 188°
2026-05-04 13:08 36.74739 31.06058 13155 ft 383 kts 189°
2026-05-04 13:08 36.72078 31.05672 13952 ft 387 kts 189°
2026-05-04 13:08 36.69417 31.05256 14684 ft 391 kts 192°
2026-05-04 13:08 36.66772 31.04399 15391 ft 393 kts 205°
2026-05-04 13:09 36.64395 31.02757 16125 ft 389 kts 222°
2026-05-04 13:09 36.62460 31.00505 16913 ft 385 kts 233°
2026-05-04 13:09 36.60866 30.97850 17575 ft 384 kts 245°
2026-05-04 13:09 36.59910 30.94806 18316 ft 376 kts 261°
2026-05-04 13:10 36.59512 30.91602 19058 ft 375 kts 270°
2026-05-04 13:10 36.59513 30.88410 19771 ft 374 kts 277°
2026-05-04 13:10 36.59756 30.85171 20386 ft 378 kts 280°
2026-05-04 13:10 36.60055 30.81928 21049 ft 382 kts 280°
2026-05-04 13:11 36.60356 30.78625 21648 ft 387 kts 280°
2026-05-04 13:11 36.60647 30.75301 22313 ft 390 kts 280°
2026-05-04 13:11 36.60935 30.71933 22886 ft 395 kts 279°
2026-05-04 13:11 36.61220 30.68519 23524 ft 397 kts 279°
2026-05-04 13:12 36.61500 30.65114 24046 ft 403 kts 279°
2026-05-04 13:12 36.61784 30.61638 24604 ft 406 kts 279°
2026-05-04 13:12 36.62069 30.58111 25128 ft 411 kts 279°
2026-05-04 13:12 36.62352 30.54594 25624 ft 415 kts 279°
2026-05-04 13:13 36.62640 30.50991 26105 ft 419 kts 279°
2026-05-04 13:13 36.62925 30.47389 26593 ft 423 kts 279°
2026-05-04 13:13 36.63215 30.43725 27074 ft 427 kts 279°
2026-05-04 13:13 36.63505 30.40040 27520 ft 431 kts 279°
2026-05-04 13:14 36.63802 30.36245 27994 ft 435 kts 279°
2026-05-04 13:14 36.64173 30.32531 28433 ft 437 kts 282°
2026-05-04 13:14 36.64821 30.28820 28814 ft 439 kts 289°
2026-05-04 13:14 36.65941 30.25284 29244 ft 438 kts 298°
2026-05-04 13:15 36.67400 30.21910 29626 ft 441 kts 303°
2026-05-04 13:15 36.69101 30.18783 30238 ft 437 kts 310°
2026-05-04 13:15 36.71073 30.15915 30837 ft 433 kts 314°
2026-05-04 13:15 36.73128 30.13187 31368 ft 430 kts 315°
2026-05-04 13:16 36.75162 30.10493 31820 ft 429 kts 313°
2026-05-04 13:16 36.77011 30.07572 32192 ft 430 kts 305°
2026-05-04 13:16 36.78435 30.04333 32560 ft 431 kts 297°
2026-05-04 13:16 36.79650 30.00884 32914 ft 431 kts 295°
2026-05-04 13:17 36.80646 29.97412 33338 ft 432 kts 286°
2026-05-04 13:17 36.80840 29.93637 33709 ft 438 kts 268°
2026-05-04 13:17 36.80367 29.89866 34119 ft 438 kts 265°
2026-05-04 13:17 36.80148 29.86136 34383 ft 436 kts 274°
2026-05-04 13:18 36.80393 29.82386 34834 ft 430 kts 279°
2026-05-04 13:18 36.80642 29.78640 35200 ft 431 kts 275°
2026-05-04 13:18 36.80567 29.74899 35467 ft 435 kts 268°
2026-05-04 13:18 36.80209 29.71151 35778 ft 437 kts 265°
2026-05-04 13:19 36.79756 29.67384 36146 ft 435 kts 264°
2026-05-04 13:19 36.79449 29.64911 36381 ft 434 kts 264°
2026-05-04 13:19 36.78840 29.59968 36815 ft 433 kts 265°
2026-05-04 13:19 36.78392 29.56271 37087 ft 433 kts 264°
2026-05-04 13:20 36.77947 29.52555 37342 ft 433 kts 264°
2026-05-04 13:20 36.77505 29.48848 37585 ft 434 kts 265°
2026-05-04 13:20 36.77065 29.45147 37828 ft 433 kts 264°
2026-05-04 13:21 36.76179 29.37700 37900 ft 436 kts 264°
2026-05-04 13:21 36.75281 29.30183 37903 ft 433 kts 264°
2026-05-04 13:22 36.74397 29.22800 37913 ft 433 kts 264°
2026-05-04 13:23 36.72711 29.08809 37941 ft 435 kts 264°
2026-05-04 13:23 36.71791 29.01407 37930 ft 434 kts 262°
2026-05-04 13:24 36.70461 28.94071 37934 ft 435 kts 259°
2026-05-04 13:24 36.69005 28.86745 37938 ft 435 kts 259°
2026-05-04 13:25 36.66856 28.75761 37943 ft 435 kts 260°
2026-05-04 13:25 36.65439 28.68476 37943 ft 434 kts 260°
2026-05-04 13:26 36.64016 28.61162 37946 ft 435 kts 260°
2026-05-04 13:26 36.62597 28.53878 37947 ft 434 kts 260°
2026-05-04 13:27 36.61165 28.46550 37946 ft 435 kts 260°
2026-05-04 13:27 36.59732 28.39235 37955 ft 435 kts 260°
2026-05-04 13:28 36.58299 28.31949 37959 ft 434 kts 259°
2026-05-04 13:28 36.56860 28.24656 37962 ft 434 kts 259°
2026-05-04 13:29 36.55413 28.17344 37966 ft 435 kts 259°
2026-05-04 13:29 36.53969 28.10075 37965 ft 435 kts 259°
2026-05-04 13:30 36.52514 28.02782 37973 ft 433 kts 259°
2026-05-04 13:30 36.51059 27.95509 37976 ft 435 kts 259°
2026-05-04 13:31 36.49609 27.88284 37982 ft 434 kts 259°
2026-05-04 13:31 36.48157 27.81012 37983 ft 432 kts 261°
2026-05-04 13:32 36.47606 27.73650 37987 ft 425 kts 277°
2026-05-04 13:32 36.48903 27.66571 37988 ft 421 kts 291°
2026-05-04 13:33 36.51182 27.59873 37994 ft 420 kts 296°
2026-05-04 13:33 36.53563 27.53284 37993 ft 420 kts 295°
2026-05-04 13:34 36.55936 27.46650 38001 ft 422 kts 295°
2026-05-04 13:34 36.58305 27.39972 38015 ft 421 kts 295°
2026-05-04 13:35 36.61842 27.29938 38017 ft 422 kts 295°
2026-05-04 13:36 36.64187 27.23258 38024 ft 421 kts 295°
2026-05-04 13:36 36.66519 27.16596 38030 ft 421 kts 295°
2026-05-04 13:37 36.68846 27.09932 38037 ft 419 kts 295°
2026-05-04 13:37 36.71169 27.03257 38034 ft 424 kts 295°
2026-05-04 13:38 36.73521 26.96481 38040 ft 425 kts 295°
2026-05-04 13:38 36.75855 26.89734 38045 ft 422 kts 295°
2026-05-04 13:39 36.78162 26.83055 38043 ft 424 kts 295°
2026-05-04 13:39 36.80489 26.76310 38045 ft 423 kts 295°
2026-05-04 13:40 36.82814 26.69553 38054 ft 424 kts 295°
2026-05-04 13:40 36.85130 26.62807 38048 ft 425 kts 295°
2026-05-04 13:41 36.87458 26.56020 38057 ft 423 kts 295°
2026-05-04 13:41 36.89769 26.49262 38061 ft 424 kts 295°
2026-05-04 13:42 36.93215 26.39132 38067 ft 423 kts 295°
2026-05-04 13:42 36.95514 26.32354 38071 ft 424 kts 294°
2026-05-04 13:43 36.97818 26.25551 38077 ft 423 kts 295°
2026-05-04 13:43 37.00107 26.18803 38078 ft 425 kts 295°
2026-05-04 13:44 37.02420 26.11990 38082 ft 425 kts 295°
2026-05-04 13:44 37.04713 26.05220 38088 ft 423 kts 295°
2026-05-04 13:45 37.07006 25.98429 38088 ft 425 kts 295°
2026-05-04 13:45 37.09288 25.91653 38099 ft 422 kts 295°
2026-05-04 13:46 37.11565 25.84876 38098 ft 423 kts 295°
2026-05-04 13:46 37.13842 25.78087 38100 ft 422 kts 295°
2026-05-04 13:47 37.16106 25.71323 38096 ft 420 kts 295°
2026-05-04 13:47 37.18362 25.64562 38106 ft 422 kts 295°
2026-05-04 13:48 37.20618 25.57790 38102 ft 419 kts 295°
2026-05-04 13:48 37.22851 25.51069 38110 ft 420 kts 295°
2026-05-04 13:49 37.25051 25.44291 38117 ft 420 kts 295°
2026-05-04 13:49 37.27635 25.37796 38105 ft 414 kts 307°
2026-05-04 13:50 37.31690 25.32738 38116 ft 415 kts 321°
2026-05-04 13:50 37.36353 25.28461 38114 ft 413 kts 324°
2026-05-04 13:51 37.41059 25.24317 38108 ft 414 kts 324°
2026-05-04 13:51 37.45788 25.20125 38116 ft 415 kts 324°
2026-05-04 13:52 37.52840 25.13846 38118 ft 415 kts 324°
2026-05-04 13:53 37.57528 25.09660 38118 ft 412 kts 324°
2026-05-04 13:53 37.62190 25.05486 38113 ft 412 kts 324°
2026-05-04 13:54 37.69228 24.99172 38113 ft 414 kts 324°
2026-05-04 13:55 37.76268 24.92842 38114 ft 415 kts 324°
2026-05-04 13:55 37.83284 24.86518 38112 ft 414 kts 324°
2026-05-04 13:56 37.87971 24.82286 38112 ft 415 kts 325°
2026-05-04 13:57 37.95155 24.76119 38109 ft 414 kts 327°
2026-05-04 13:58 38.04692 24.67939 38114 ft 415 kts 326°
2026-05-04 13:58 38.11862 24.61745 38114 ft 414 kts 326°
2026-05-04 13:59 38.16596 24.57643 38117 ft 414 kts 326°
2026-05-04 14:00 38.23769 24.51413 38112 ft 416 kts 326°
2026-05-04 14:00 38.30919 24.45188 38118 ft 416 kts 326°
2026-05-04 14:01 38.35685 24.41029 38115 ft 416 kts 326°
2026-05-04 14:02 38.42824 24.34787 38118 ft 416 kts 326°
2026-05-04 14:02 38.47604 24.30600 38113 ft 416 kts 326°
2026-05-04 14:03 38.52387 24.26402 38117 ft 416 kts 326°
2026-05-04 14:03 38.57125 24.22239 38114 ft 415 kts 326°
2026-05-04 14:04 38.64255 24.15958 38117 ft 415 kts 326°
2026-05-04 14:04 38.69012 24.11759 38108 ft 415 kts 326°
2026-05-04 14:05 38.76170 24.05430 38113 ft 416 kts 326°
2026-05-04 14:06 38.80919 24.01222 38129 ft 416 kts 326°
2026-05-04 14:06 38.85673 23.97003 38112 ft 417 kts 326°
2026-05-04 14:07 38.90422 23.92780 38118 ft 415 kts 326°
2026-05-04 14:07 38.95169 23.88551 38112 ft 415 kts 326°
2026-05-04 14:08 38.99900 23.84331 38113 ft 415 kts 326°
2026-05-04 14:08 39.04657 23.80079 38114 ft 413 kts 326°
2026-05-04 14:09 39.11776 23.73709 38110 ft 417 kts 326°
2026-05-04 14:10 39.18898 23.67315 38114 ft 415 kts 326°
2026-05-04 14:10 39.23655 23.63034 38117 ft 414 kts 326°
2026-05-04 14:11 39.28363 23.58792 38115 ft 415 kts 326°
2026-05-04 14:11 39.35434 23.52407 38110 ft 415 kts 326°
2026-05-04 14:12 39.40151 23.48137 38114 ft 416 kts 326°
2026-05-04 14:13 39.47258 23.41692 38116 ft 415 kts 326°
2026-05-04 14:13 39.51986 23.37396 38113 ft 415 kts 327°
2026-05-04 14:14 39.56710 23.33097 38113 ft 416 kts 326°
2026-05-04 14:14 39.63810 23.26621 38110 ft 415 kts 326°
2026-05-04 14:15 39.73231 23.18003 38109 ft 415 kts 326°
2026-05-04 14:16 39.80279 23.11537 38113 ft 416 kts 326°
2026-05-04 14:17 39.87368 23.05015 38108 ft 417 kts 326°
2026-05-04 14:18 39.94490 22.98447 38108 ft 418 kts 326°
2026-05-04 14:19 40.03937 22.89708 38108 ft 418 kts 326°
2026-05-04 14:19 40.08678 22.85310 38108 ft 417 kts 326°
2026-05-04 14:20 40.13435 22.80889 38107 ft 418 kts 326°
2026-05-04 14:20 40.18191 22.76463 38090 ft 416 kts 326°
2026-05-04 14:21 40.25265 22.69864 38105 ft 417 kts 326°
2026-05-04 14:21 40.29998 22.65440 38095 ft 417 kts 326°
2026-05-04 14:22 40.34694 22.61044 38094 ft 417 kts 327°
2026-05-04 14:22 40.39415 22.56614 38097 ft 416 kts 326°
2026-05-04 14:23 40.46500 22.49953 38086 ft 422 kts 326°
2026-05-04 14:24 40.51279 22.45450 38083 ft 422 kts 326°
2026-05-04 14:24 40.56030 22.40967 38087 ft 422 kts 326°
2026-05-04 14:25 40.60828 22.36429 38081 ft 423 kts 326°
2026-05-04 14:25 40.67976 22.29653 38074 ft 422 kts 326°
2026-05-04 14:26 40.72738 22.25131 38071 ft 423 kts 326°
2026-05-04 14:26 40.77525 22.20575 38078 ft 422 kts 326°
2026-05-04 14:27 40.82269 22.16052 38089 ft 421 kts 326°
2026-05-04 14:27 40.86995 22.11539 38100 ft 421 kts 326°
2026-05-04 14:28 40.91752 22.06988 38096 ft 419 kts 326°
2026-05-04 14:28 40.96476 22.02462 38094 ft 421 kts 326°
2026-05-04 14:29 41.05810 21.93127 38110 ft 422 kts 319°
2026-05-04 14:30 41.09596 21.87185 38108 ft 428 kts 307°
2026-05-04 14:31 41.14181 21.76865 38124 ft 429 kts 303°
2026-05-04 14:32 41.20114 21.63168 38118 ft 430 kts 304°
2026-05-04 14:32 41.23086 21.56301 38118 ft 428 kts 304°
2026-05-04 14:33 41.26048 21.49447 38132 ft 428 kts 304°
2026-05-04 14:33 41.29012 21.42576 38114 ft 428 kts 304°
2026-05-04 14:34 41.31975 21.35685 38118 ft 428 kts 304°
2026-05-04 14:34 41.34940 21.28776 38122 ft 430 kts 303°
2026-05-04 14:35 41.37866 21.21942 38115 ft 427 kts 303°
2026-05-04 14:35 41.40816 21.15033 38125 ft 428 kts 303°
2026-05-04 14:36 41.43751 21.08147 38132 ft 427 kts 303°
2026-05-04 14:36 41.46672 21.01284 38130 ft 427 kts 303°
2026-05-04 14:37 41.49600 20.94382 38133 ft 425 kts 303°
2026-05-04 14:37 41.52516 20.87497 38128 ft 427 kts 303°
2026-05-04 14:38 41.55410 20.80646 38128 ft 426 kts 303°
2026-05-04 14:38 41.58320 20.73741 38122 ft 426 kts 303°
2026-05-04 14:39 41.61190 20.66912 37697 ft 416 kts 303°
2026-05-04 14:39 41.62590 20.63572 36636 ft 416 kts 303°
2026-05-04 14:39 41.64007 20.60195 35658 ft 418 kts 303°
2026-05-04 14:40 41.66826 20.53460 33815 ft 416 kts 304°
2026-05-04 14:40 41.68185 20.50035 32535 ft 421 kts 302°
2026-05-04 14:40 41.69458 20.46544 31035 ft 429 kts 300°
2026-05-04 14:40 41.70732 20.42953 29683 ft 432 kts 300°
2026-05-04 14:41 41.72023 20.39309 28306 ft 434 kts 300°
2026-05-04 14:41 41.73296 20.35720 27416 ft 425 kts 300°
2026-05-04 14:41 41.75759 20.28782 26383 ft 409 kts 300°
2026-05-04 14:42 41.78286 20.21728 25081 ft 422 kts 300°
2026-05-04 14:42 41.79529 20.18242 24389 ft 415 kts 300°
2026-05-04 14:42 41.80751 20.14808 23719 ft 408 kts 300°
2026-05-04 14:43 41.81966 20.11394 23049 ft 400 kts 300°
2026-05-04 14:43 41.83144 20.08083 22398 ft 398 kts 300°
2026-05-04 14:43 41.84347 20.04707 21723 ft 401 kts 300°
2026-05-04 14:43 41.85549 20.01333 21057 ft 402 kts 300°
2026-05-04 14:44 41.86727 19.98016 20401 ft 395 kts 300°
2026-05-04 14:44 41.87894 19.94719 19733 ft 388 kts 300°
2026-05-04 14:44 41.89045 19.91465 19084 ft 382 kts 300°
2026-05-04 14:44 41.90182 19.88254 18186 ft 384 kts 300°
2026-05-04 14:45 41.91331 19.85010 17357 ft 384 kts 300°
2026-05-04 14:45 41.92456 19.81824 16764 ft 379 kts 300°
2026-05-04 14:45 41.93576 19.78643 16147 ft 375 kts 300°
2026-05-04 14:45 41.94685 19.75493 15522 ft 372 kts 300°
2026-05-04 14:46 41.95782 19.72377 14892 ft 368 kts 300°
2026-05-04 14:46 41.96860 19.69310 14253 ft 366 kts 300°
2026-05-04 14:46 41.97948 19.66214 13647 ft 363 kts 300°
2026-05-04 14:46 41.99008 19.63192 13031 ft 361 kts 299°
2026-05-04 14:47 42.00073 19.60154 12390 ft 359 kts 299°
2026-05-04 14:47 42.01127 19.57143 11924 ft 353 kts 299°
2026-05-04 14:47 42.02168 19.54166 11651 ft 353 kts 299°
2026-05-04 14:47 42.03215 19.51176 11507 ft 358 kts 299°
2026-05-04 14:48 42.04282 19.48123 11313 ft 357 kts 299°
2026-05-04 14:48 42.05315 19.45153 11034 ft 346 kts 299°
2026-05-04 14:48 42.06311 19.42284 10726 ft 336 kts 298°
2026-05-04 14:48 42.07290 19.39463 10515 ft 323 kts 298°
2026-05-04 14:49 42.08212 19.36807 10363 ft 311 kts 299°
2026-05-04 14:49 42.09121 19.34185 10208 ft 299 kts 298°
2026-05-04 14:49 42.09986 19.31693 9938 ft 293 kts 298°
2026-05-04 14:49 42.10852 19.29198 9544 ft 291 kts 298°
2026-05-04 14:50 42.11725 19.26683 9164 ft 290 kts 298°
2026-05-04 14:50 42.12569 19.24246 8765 ft 287 kts 298°
2026-05-04 14:50 42.13406 19.21824 8445 ft 284 kts 298°
2026-05-04 14:50 42.14235 19.19422 8076 ft 281 kts 298°
2026-05-04 14:51 42.15054 19.17050 7720 ft 276 kts 298°
2026-05-04 14:51 42.15851 19.14736 7414 ft 271 kts 297°
2026-05-04 14:51 42.16638 19.12451 7037 ft 268 kts 297°
2026-05-04 14:51 42.17415 19.10192 6701 ft 263 kts 297°
2026-05-04 14:52 42.18182 19.07962 6362 ft 259 kts 297°
2026-05-04 14:52 42.18946 19.05721 6080 ft 265 kts 295°
2026-05-04 14:52 42.19402 19.03322 5705 ft 269 kts 274°
2026-05-04 14:52 42.19059 19.00862 5363 ft 266 kts 246°
2026-05-04 14:53 42.18048 18.98839 5165 ft 255 kts 227°
2026-05-04 14:53 42.16830 18.97233 5106 ft 239 kts 223°
2026-05-04 14:53 42.15730 18.95652 5035 ft 228 kts 236°
2026-05-04 14:53 42.15155 18.93697 4954 ft 223 kts 266°
2026-05-04 14:54 42.15298 18.91640 4656 ft 222 kts 283°
2026-05-04 14:54 42.15617 18.89616 4343 ft 221 kts 282°
2026-05-04 14:54 42.15989 18.87650 4131 ft 212 kts 294°
2026-05-04 14:54 42.16824 18.86121 4014 ft 197 kts 324°
2026-05-04 14:55 42.18015 18.85295 3810 ft 189 kts 341°
2026-05-04 14:55 42.19223 18.84691 3650 ft 181 kts 340°
2026-05-04 14:55 42.20372 18.84095 3532 ft 173 kts 340°
2026-05-04 14:55 42.21481 18.83520 3418 ft 170 kts 340°
2026-05-04 14:56 42.22561 18.82958 3299 ft 163 kts 340°
2026-05-04 14:56 42.23605 18.82385 3189 ft 160 kts 339°
2026-05-04 14:56 42.24637 18.81835 3123 ft 160 kts 339°
2026-05-04 14:56 42.25684 18.81284 3108 ft 160 kts 340°
2026-05-04 14:57 42.26737 18.80743 2918 ft 162 kts 340°
2026-05-04 14:57 42.27779 18.80208 2565 ft 159 kts 339°
2026-05-04 14:57 42.28779 18.79698 2341 ft 148 kts 339°
2026-05-04 14:57 42.29721 18.79208 2045 ft 144 kts 339°
2026-05-04 14:58 42.30607 18.78753 1913 ft 132 kts 339°
2026-05-04 14:58 42.31479 18.78312 1804 ft 133 kts 339°
2026-05-04 14:58 42.32353 18.77862 1683 ft 137 kts 339°
2026-05-04 14:58 42.33240 18.77403 1447 ft 137 kts 339°
2026-05-04 14:59 42.34125 18.76956 1177 ft 134 kts 343°
2026-05-04 14:59 42.35044 18.76762 1020 ft 134 kts 354°
2026-05-04 14:59 42.36897 18.76289 903 ft 138 kts 336°
2026-05-04 15:00 42.37724 18.75585 587 ft 140 kts 317°
2026-05-04 15:00 42.38424 18.74738 372 ft 131 kts 317°
2026-05-04 15:00 42.39112 18.73927 208 ft 132 kts 317°
2026-05-04 15:01 42.40499 18.72290 39 ft 105 kts 319°
2026-05-04 15:01 42.40902 18.71814 40 ft 54 kts 318°
2026-05-04 15:01 42.41151 18.71522 40 ft 43 kts 320°
2026-05-04 15:01 42.41278 18.71374 40 ft 13 kts 324°
2026-05-04 15:02 42.41351 18.71402 40 ft 12 kts 60°
2026-05-04 15:02 42.41332 18.71498 40 ft 10 kts 142°
2026-05-04 15:02 42.41289 18.71542 40 ft 6 kts 138°
2026-05-04 15:02 42.41238 18.71603 40 ft 12 kts 139°
2026-05-04 15:03 42.41220 18.71669 40 ft 8 kts 53°
2026-05-04 15:03 42.41211 18.71703 40 ft 0 kts 187°
2026-05-04 15:03 42.41204 18.71703 40 ft 0 kts 183°